FREGAT DEB, 46002

Orbit data source: Space-Track

FREGAT DEB, 46002 is space debris in LEO originally from a launch on Mon, 18 Jul 2011 UTC launched from the Tyuratam Missile And Space Complex (TTMTR). Debris objects in space refer to the collection of defunct objects orbiting the Earth. Examples of debris include non-operational satellites, rocket bodies, and fragments generated from explosions, collisions, or faulty payload assembly.

Loading next visibility...
Identifier
46002, 2011-037HD
Orbit
LEO
Country
Flag of CISCIS
Related business
Manufacturer
Lavochkin
Mission
Spacecraft
Bus & Motor
Unknown
Mass
Unknown
Launch date (UTC)
2011-07-18 (15 years ago)
Launch vehicle
Unknown
Launch site
Tyuratam Missile And Space Complex (TTMTR)
Object type
Payload
Rocket body
Debris
Shape & HBR
Unknown shape, 0.1 m
Radar Cross Section
Small (<0.1 m²)

Expand to show TLE details & history
Last TLE update: 1 day ago

TLE from 1 day ago
0 FREGAT DEB
1 46002U 11037HD  26036.45196437  .00029155  00000-0  86129-1 0  9999
2 46002  51.2203 186.1778 1291983 258.2631  87.0754 11.48163922213065
Epoch: 2026-02-05T10:50Z
TLE epoch observation values (Epoch: 2026-02-05T10:50:49.721Z)
Latitude
0.00001°
Longitude
-112.13335°
Altitude
2,005.481 km
Speed
6.863 km/s
True Right ascension
12h 24m 42s
True Declination
0° 00' 00"
Sunlit
Object was in full shadow at epoch
Visualization orbit readout
Latitude
Unknown
Longitude
Unknown
Altitude
Unknown
Speed
Unknown
Apparent Right ascension
Unknown
Apparent Declination
Unknown
Sunlit
N/A
Visualization observer readout
Local Sidereal Time
15:37:07
Azimuth
Unknown
Elevation
Unknown
Doppler factor
Unknown
Orbital elements
Apogee altitude
2,994.495 km
Perigee altitude
849.738 km
Semi-major axis
8,300.254 km
Eccentricity
0.1292
Inclination
51.2203°
RAAN
186.1778°
Arg. of periapsis
258.2631°
True anomaly
101.81943°
Mean anomaly
87.0754°
Eccentric anomaly
94.45555°
Mean motion
2.87016 °/min
Orbital period
125.43 mins
BSTAR
0.086129
Loading maneuver chart data...
Computing Atmospheric mass density...
Loading historical data...
Loading historical data...
Loading historical data...
Loading historical data...
Loading historical data...
Loading historical data...
Loading historical data...

Documentation

Showing up to 5 results
|